Regional Weather Roundup
Issued by NWS

Home | Current Version | Previous Version | Graphics & Text | Print | Product List | Glossary On
Versions: 1 2 3 4 5 6 7 8 9 10 11 12 13 14 15 16 17 18 19 20 21 22 23 24 25 26 27 28 29 30 31 32 33 34 35 36 37 38 39 40 41 42 43 44 45 46 47 48 49 50
000
ASUS43 KOAX 241610
RWRNE

WEATHER ROUNDUP FOR NEBRASKA
NATIONAL WEATHER SERVICE OMAHA NE
1100 AM CDT WED MAY 24 2017

NOTES: SATELLITE DATA IS BEING USED TO AUGMENT CLOUD COVER ABOVE
       12000 FEET.
       "FAIR" INDICATES FEW OR NO CLOUDS BELOW 12,000 FEET WITH NO
       SIGNIFICANT WEATHER AND/OR OBSTRUCTIONS TO VISIBILITY.

  * THESE STATIONS DO NOT REPORT WEATHER SUCH AS RAIN...SNOW OR FOG.

NEZ001>004-019>022-054>056-241700-
NEBRASKA PANHANDLE

CITY           SKY/WX    TMP DP  RH WIND       PRES   REMARKS
SCOTTSBLUFF    FAIR      61  42  49 E10       29.70F
ALLIANCE       FAIR      58  39  49 S17G25    29.72F
CHADRON        FAIR      62  42  47 S13       29.67F
GORDON         FAIR      58  37  46 S10G18    29.72F
KIMBALL        FAIR      65  38  36 SW12      29.75F
SIDNEY         FAIR      57  42  57 S14G23    29.77F
$$

NEZ057>060-069>072-079>082-241700-
SOUTHWEST NEBRASKA

CITY           SKY/WX    TMP DP  RH WIND       PRES   REMARKS
NORTH PLATTE   FAIR      56  38  50 CALM      29.80F
IMPERIAL       FAIR      57  38  48 S7        29.80F
LEXINGTON      FAIR      55  42  62 W5        29.82F
MCCOOK         FAIR      56  39  53 SW5       29.82F
OGALLALA       FAIR      59  37  44 S8        29.78F
$$

NEZ005>010-023>029-035>040-094-241700-
NORTH CENTRAL NEBRASKA

CITY           SKY/WX    TMP DP  RH WIND       PRES   REMARKS
VALENTINE      FAIR      58  38  47 SE6       29.76F
AINSWORTH      FAIR      54  42  64 CALM      29.78F
BROKEN BOW     PTSUNNY   54  41  61 S3        29.80F
O`NEILL        PTSUNNY   55  41  60 CALM      29.80F
ORD            PTSUNNY   53  40  61 VRB3      29.79F
THEDFORD       FAIR      56  38  51 CALM      29.79F
$$

NEZ041-046>049-061>064-073>077-083>087-241700-
SOUTH CENTRAL NEBRASKA

CITY           SKY/WX    TMP DP  RH WIND       PRES   REMARKS
GRAND ISLAND   FAIR      56  43  61 N6        29.81F
AURORA         PTSUNNY   57  42  58 N8        29.80F
HASTINGS       FAIR      54  41  61 N6        29.81F
HEBRON         FAIR      58  45  60 N7        29.79F
HOLDREGE       CLOUDY    52  39  60 NW5       29.82F
KEARNEY *      PTSUNNY   54  39  58 CALM      29.82F
YORK           FAIR      57  45  62 NE13      29.79F
$$

NEZ011>018-030>034-042>045-241700-
NORTHEAST NEBRASKA

CITY           SKY/WX    TMP DP  RH WIND       PRES   REMARKS
NORFOLK        FAIR      56  44  64 N7        29.77F
ALBION         FAIR      58  43  56 N7        29.79F
BLAIR          FAIR      57  48  72 N14       29.75F
FREMONT        PTSUNNY   59  46  60 N8        29.77F
TEKAMAH        FAIR      58  49  72 N15       29.76F
WAYNE          CLOUDY    57  51  79 NW8       29.78F
$$

NEZ050>053-065>068-078-088>093-241700-
SOUTHEAST NEBRASKA

CITY           SKY/WX    TMP DP  RH WIND       PRES   REMARKS
LINCOLN        PTSUNNY   59  46  62 N12       29.77F
OMAHA EPPLEY   FAIR      59  48  67 N12       29.75F
BEATRICE       FAIR      60  47  63 N7        29.77F
FALLS CITY     FAIR      61  49  64 NW14G22   29.72F
NEBRASKA CITY  CLOUDY    60  46  59 N9        29.75F
PLATTSMOUTH      N/A    N/A N/A N/A MISG        N/A
$$

NEZ044-045-051>053-067-241700-
OMAHA AREA

CITY           SKY/WX    TMP DP  RH WIND       PRES   REMARKS
OMAHA EPPLEY   FAIR      59  48  67 N12       29.75F
BLAIR          FAIR      57  48  72 N14       29.75F
FREMONT        PTSUNNY   59  46  60 N8        29.77F
MILLARD        FAIR      60  49  67 NW8       29.76F
OFFUTT AFB     FAIR      59  48  67 N9        29.75F
PLATTSMOUTH      N/A    N/A N/A N/A MISG        N/A
WAHOO          PTSUNNY   58  47  65 N10G17    29.77F
$$




USA.gov is the U.S. government's official web portal to all federal, state and local government web resources and services.